TimeCST,TemperatureF,Dew PointF,Humidity,Sea Level PressureIn,VisibilityMPH,Wind Direction,Wind SpeedMPH,Gust SpeedMPH,PrecipitationIn,Events,Conditions,WindDirDegrees,DateUTC
12:54 AM,19.9,10.0,65,30.07,10.0,South,10.4,-,N/A,,Clear,190,2013-01-16 06:54:00
1:54 AM,21.9,10.0,60,30.06,10.0,SSW,11.5,-,N/A,,Clear,200,2013-01-16 07:54:00
2:54 AM,21.9,10.9,63,30.03,10.0,South,13.8,-,N/A,,Clear,190,2013-01-16 08:54:00
3:54 AM,21.0,10.9,65,29.99,10.0,South,11.5,-,N/A,,Clear,190,2013-01-16 09:54:00
4:54 AM,24.1,12.9,62,29.97,10.0,SSW,15.0,-,N/A,,Clear,210,2013-01-16 10:54:00
5:54 AM,26.1,14.0,60,29.94,10.0,SSW,15.0,-,N/A,,Mostly Cloudy,210,2013-01-16 11:54:00
6:54 AM,27.0,15.1,61,29.95,10.0,SW,15.0,-,N/A,,Mostly Cloudy,230,2013-01-16 12:54:00
7:54 AM,28.0,16.0,61,29.95,10.0,SW,15.0,-,N/A,,Overcast,230,2013-01-16 13:54:00
8:10 AM,28.0,16.0,61,29.91,10.0,WSW,16.1,-,N/A,,Overcast,240,2013-01-16 14:10:00
8:54 AM,30.0,18.0,61,29.96,10.0,WSW,15.0,-,N/A,,Overcast,240,2013-01-16 14:54:00
9:54 AM,32.0,19.9,61,29.96,10.0,West,12.7,-,N/A,,Mostly Cloudy,260,2013-01-16 15:54:00
10:54 AM,37.0,23.0,57,29.95,10.0,West,15.0,-,N/A,,Partly Cloudy,270,2013-01-16 16:54:00
11:54 AM,41.0,27.0,57,29.93,10.0,West,11.5,-,N/A,,Mostly Cloudy,270,2013-01-16 17:54:00
12:54 PM,44.6,28.4,53,29.89,10.0,WSW,10.4,-,N/A,,Partly Cloudy,250,2013-01-16 18:54:00
1:54 PM,46.4,30.2,53,29.89,10.0,West,13.8,-,N/A,,Partly Cloudy,280,2013-01-16 19:54:00
2:54 PM,48.0,30.0,50,29.92,10.0,West,13.8,-,N/A,,Partly Cloudy,270,2013-01-16 20:54:00
3:54 PM,48.9,30.9,50,29.94,10.0,West,13.8,-,N/A,,Partly Cloudy,260,2013-01-16 21:54:00
4:54 PM,46.9,32.0,56,29.98,10.0,WNW,10.4,-,N/A,,Scattered Clouds,290,2013-01-16 22:54:00
5:54 PM,41.0,30.9,67,30.01,10.0,West,5.8,-,N/A,,Partly Cloudy,280,2013-01-16 23:54:00
6:54 PM,39.0,30.9,73,30.05,10.0,WNW,8.1,-,N/A,,Scattered Clouds,300,2013-01-17 00:54:00
7:54 PM,42.1,32.0,67,30.07,10.0,NW,11.5,-,N/A,,Overcast,320,2013-01-17 01:54:00
8:54 PM,39.0,30.9,73,30.12,10.0,North,16.1,21.9,N/A,,Overcast,350,2013-01-17 02:54:00
9:10 PM,37.9,32.0,79,30.10,10.0,North,16.1,-,N/A,,Mostly Cloudy,360,2013-01-17 03:10:00
9:29 PM,37.0,30.9,79,30.12,10.0,North,11.5,-,N/A,,Mostly Cloudy,360,2013-01-17 03:29:00
9:54 PM,36.0,30.0,79,30.16,10.0,NNW,10.4,-,N/A,,Partly Cloudy,340,2013-01-17 03:54:00
10:20 PM,35.1,28.9,78,30.16,10.0,NNW,16.1,25.3,N/A,,Mostly Cloudy,340,2013-01-17 04:20:00
10:54 PM,34.0,28.0,79,30.19,10.0,North,18.4,26.5,N/A,,Overcast,350,2013-01-17 04:54:00
11:54 PM,32.0,25.0,75,30.22,10.0,North,17.3,-,N/A,,Partly Cloudy,350,2013-01-17 05:54:00